{"data":{"norad_id":60733,"intl_designator":"2024-152P","name":"STARLINK-32253","alt_names":[],"object_type":"PAYLOAD","status":"ACTIVE","operator":null,"country":"US","launch_date":"2024-08-28","launch_site_code":"AFETR","launch_vehicle":null,"mission":null,"orbit_class":"UNKNOWN","rcs_meters":null,"size_class":null,"mass_kg":null,"dimensions":null,"purposes":["comms"],"wikipedia_slug":null,"has_3d_model":false,"image_url":null,"decayed_at":null,"tle_current":{"epoch":"2026-05-25T01:18:06.031008Z","epoch_age_seconds":77119,"freshness":"FRESH","line1":"1 60733U 24152P   26145.05423647  .00000755  00000+0  37615-4 0  9994","line2":"2 60733  53.1610 273.6401 0001049  90.8806 269.2315 15.30195993 98498","mean_motion":15.30195993,"eccentricity":0.0001049,"inclination_deg":53.161,"raan_deg":273.6401,"arg_perigee_deg":90.8806,"mean_anomaly_deg":269.2315,"bstar":3.7615e-5,"rev_number":9849,"period_min":94.105592132471,"perigee_km":474.50811573804,"apogee_km":475.94595151229,"semimajor_km":6853.3640336252,"source":"CELESTRAK","updated_at":"2026-05-25T13:38:19.310326Z"}}}